Time,TemperatureF,DewpointF,PressureIn,WindDirection,WindDirectionDegrees,WindSpeedMPH,WindSpeedGustMPH,Humidity,HourlyPrecipIn,Conditions,Clouds,dailyrainin,SolarRadiationWatts/m^2,SoftwareType,DateUTC
2013-10-09 17:30:00,57.2,42.5,30.36,North,0,0.0,0.0,58,0.00,,,0.00,0040,Weather View 32 v70,2013-10-09 21:30:00,
2013-10-09 17:40:00,56.9,42.7,30.36,ENE,68,0.0,0.0,59,0.00,,,0.00,0016,Weather View 32 v70,2013-10-09 21:40:00,
2013-10-09 17:45:00,56.7,42.5,30.36,NNE,23,0.0,0.0,59,0.00,,,0.00,0024,Weather View 32 v70,2013-10-09 21:45:00,
2013-10-09 17:55:00,56.1,43.2,30.36,North,0,0.0,0.0,62,0.00,,,0.00,0008,Weather View 32 v70,2013-10-09 21:55:00,
2013-10-09 18:00:00,55.8,42.9,30.36,NNE,23,0.0,0.0,62,0.00,,,0.00,0016,Weather View 32 v70,2013-10-09 22:00:00,
2013-10-09 18:05:00,55.5,42.7,30.36,NNE,23,0.0,0.0,62,0.00,,,0.00,0000,Weather View 32 v70,2013-10-09 22:05:00,
2013-10-09 18:10:00,55.2,42.8,30.36,NNE,23,0.0,0.0,63,0.00,,,0.00,0008,Weather View 32 v70,2013-10-09 22:10:00,
2013-10-09 18:15:00,54.9,42.9,30.36,NNE,23,0.0,0.0,64,0.00,,,0.00,0000,Weather View 32 v70,2013-10-09 22:15:00,
2013-10-09 18:25:00,54.0,42.4,30.36,North,0,0.0,0.0,65,0.00,,,0.00,0000,Weather View 32 v70,2013-10-09 22:25:00,
2013-10-09 18:30:00,53.6,42.5,30.36,North,0,0.0,0.0,66,0.00,,,0.00,0016,Weather View 32 v70,2013-10-09 22:30:00,
2013-10-09 18:40:00,53.1,42.4,30.36,North,0,0.0,0.0,67,0.00,,,0.00,0000,Weather View 32 v70,2013-10-09 22:40:00,
2013-10-09 18:45:00,53.0,42.7,30.36,North,0,0.0,0.0,68,0.00,,,0.00,0000,Weather View 32 v70,2013-10-09 22:45:00,
2013-10-09 18:50:00,52.7,42.4,30.36,North,0,0.0,0.0,68,0.00,,,0.00,0000,Weather View 32 v70,2013-10-09 22:50:00,
2013-10-09 19:00:00,52.2,42.3,30.35,North,0,0.0,0.0,69,0.00,,,0.00,0000,Weather View 32 v70,2013-10-09 23:00:00,
2013-10-09 19:05:00,52.1,42.5,30.35,North,0,0.0,0.0,70,0.00,,,0.00,0008,Weather View 32 v70,2013-10-09 23:05:00,
2013-10-09 19:15:00,51.7,43.0,30.35,North,0,0.0,0.0,72,0.00,,,0.00,0000,Weather View 32 v70,2013-10-09 23:15:00,
2013-10-09 19:20:00,51.6,42.9,30.35,North,0,0.0,0.0,72,0.00,,,0.00,0000,Weather View 32 v70,2013-10-09 23:20:00,
2013-10-09 19:25:00,51.5,42.7,30.35,NW,315,0.0,0.0,72,0.00,,,0.00,0000,Weather View 32 v70,2013-10-09 23:25:00,
2013-10-09 19:30:00,51.4,42.6,30.35,NW,315,0.0,0.0,72,0.00,,,0.00,0000,Weather View 32 v70,2013-10-09 23:30:00,
2013-10-09 19:40:00,51.0,42.3,30.35,NW,315,0.0,0.0,72,0.00,,,0.00,0000,Weather View 32 v70,2013-10-09 23:40:00,
2013-10-09 19:45:00,50.9,42.6,30.35,NW,315,0.0,0.0,73,0.00,,,0.00,0000,Weather View 32 v70,2013-10-09 23:45:00,
2013-10-09 19:55:00,50.6,42.6,30.35,NW,315,0.0,0.0,74,0.00,,,0.00,0000,Weather View 32 v70,2013-10-09 23:55:00,
2013-10-09 20:00:00,50.7,42.7,30.35,NW,315,0.0,0.0,74,0.00,,,0.00,0000,Weather View 32 v70,2013-10-10 00:00:00,
2013-10-09 20:10:00,50.5,42.5,30.35,NW,315,0.0,0.0,74,0.00,,,0.00,0000,Weather View 32 v70,2013-10-10 00:10:00,
2013-10-09 20:15:00,50.3,42.3,30.35,NW,315,0.0,0.0,74,0.00,,,0.00,0000,Weather View 32 v70,2013-10-10 00:15:00,
2013-10-09 20:25:00,50.1,42.5,30.35,NW,315,0.0,0.0,75,0.00,,,0.00,0008,Weather View 32 v70,2013-10-10 00:25:00,
2013-10-09 20:30:00,50.1,42.9,30.35,NW,315,0.0,0.0,76,0.00,,,0.00,0000,Weather View 32 v70,2013-10-10 00:30:00,
2013-10-09 20:40:00,50.1,43.2,30.35,NW,315,0.0,0.0,77,0.00,,,0.00,0000,Weather View 32 v70,2013-10-10 00:40:00,
2013-10-09 20:50:00,49.8,43.2,30.34,NW,315,0.0,0.0,78,0.00,,,0.00,0008,Weather View 32 v70,2013-10-10 00:50:00,
2013-10-09 20:55:00,49.8,43.2,30.34,NW,315,0.0,0.0,78,0.00,,,0.00,0000,Weather View 32 v70,2013-10-10 00:55:00,
2013-10-09 21:00:00,49.8,43.2,30.34,NW,315,0.0,0.0,78,0.00,,,0.00,0000,Weather View 32 v70,2013-10-10 01:00:00,
2013-10-09 21:10:00,49.7,43.1,30.35,NNW,338,0.0,2.0,78,0.00,,,0.00,0000,Weather View 32 v70,2013-10-10 01:10:00,
2013-10-09 21:15:00,49.6,43.0,30.34,North,0,0.0,2.0,78,0.00,,,0.00,0000,Weather View 32 v70,2013-10-10 01:15:00,
2013-10-09 21:20:00,49.6,43.0,30.34,North,0,0.0,2.0,78,0.00,,,0.00,0000,Weather View 32 v70,2013-10-10 01:20:00,
2013-10-09 21:30:00,49.4,42.8,30.34,North,0,0.0,2.0,78,0.00,,,0.00,0000,Weather View 32 v70,2013-10-10 01:30:00,
2013-10-09 21:35:00,49.2,42.7,30.34,NW,315,0.0,2.0,78,0.00,,,0.00,0000,Weather View 32 v70,2013-10-10 01:35:00,
2013-10-09 21:40:00,49.1,42.9,30.34,NW,315,0.0,2.0,79,0.00,,,0.00,0000,Weather View 32 v70,2013-10-10 01:40:00,
2013-10-09 21:50:00,49.0,42.4,30.34,NW,315,0.0,2.0,78,0.00,,,0.00,0000,Weather View 32 v70,2013-10-10 01:50:00,
2013-10-09 22:00:00,48.8,42.2,30.35,NNW,338,0.0,2.0,78,0.00,,,0.00,0000,Weather View 32 v70,2013-10-10 02:00:00,
2013-10-09 22:05:00,48.8,42.2,30.34,NNE,23,0.0,0.0,78,0.00,,,0.00,0000,Weather View 32 v70,2013-10-10 02:05:00,
2013-10-09 22:15:00,48.7,42.4,30.34,NNE,23,0.0,0.0,79,0.00,,,0.00,0000,Weather View 32 v70,2013-10-10 02:15:00,
2013-10-09 22:20:00,48.7,42.8,30.34,NNE,23,0.0,0.0,80,0.00,,,0.00,0000,Weather View 32 v70,2013-10-10 02:20:00,
2013-10-09 22:25:00,48.6,42.3,30.35,NNE,23,0.0,0.0,79,0.00,,,0.00,0000,Weather View 32 v70,2013-10-10 02:25:00,
2013-10-09 22:30:00,48.6,42.3,30.35,NNW,338,0.0,0.0,79,0.00,,,0.00,0000,Weather View 32 v70,2013-10-10 02:30:00,
2013-10-09 22:40:00,48.7,43.1,30.34,NNW,338,0.0,0.0,81,0.00,,,0.00,0000,Weather View 32 v70,2013-10-10 02:40:00,
2013-10-09 22:45:00,48.7,43.1,30.34,NNW,338,0.0,0.0,81,0.00,,,0.00,0000,Weather View 32 v70,2013-10-10 02:45:00,
2013-10-09 22:55:00,48.6,42.7,30.34,North,0,0.0,0.0,80,0.00,,,0.00,0008,Weather View 32 v70,2013-10-10 02:55:00,
2013-10-09 23:00:00,48.5,42.6,30.34,North,0,0.0,0.0,80,0.00,,,0.00,0000,Weather View 32 v70,2013-10-10 03:00:00,
2013-10-09 23:05:00,48.3,42.4,30.34,North,0,0.0,0.0,80,0.00,,,0.00,0000,Weather View 32 v70,2013-10-10 03:05:00,
2013-10-09 23:15:00,48.2,42.3,30.34,North,0,0.0,0.0,80,0.00,,,0.00,0000,Weather View 32 v70,2013-10-10 03:15:00,
2013-10-09 23:20:00,48.2,42.3,30.34,North,0,0.0,0.0,80,0.00,,,0.00,0000,Weather View 32 v70,2013-10-10 03:20:00,
2013-10-09 23:25:00,48.1,42.2,30.34,North,0,0.0,0.0,80,0.00,,,0.00,0000,Weather View 32 v70,2013-10-10 03:25:00,
2013-10-09 23:30:00,48.0,42.4,30.34,North,0,0.0,0.0,81,0.00,,,0.00,0000,Weather View 32 v70,2013-10-10 03:30:00,
2013-10-09 23:35:00,47.9,42.3,30.34,NNW,338,0.0,0.0,81,0.00,,,0.00,0000,Weather View 32 v70,2013-10-10 03:35:00,
2013-10-09 23:45:00,47.8,42.5,30.33,NNW,338,0.0,0.0,82,0.00,,,0.00,0000,Weather View 32 v70,2013-10-10 03:45:00,
2013-10-09 23:55:00,47.7,42.8,30.33,NNW,338,0.0,0.0,83,0.00,,,0.00,0000,Weather View 32 v70,2013-10-10 03:55:00,